Location: Unspecified
(0.0000°N, 0.0000°E)
Time: 07:16:02
(UTC+00:00)

Hubble Space Telescope - Pass Details

Date: 14 October 2019
Orbit: 536 x 540 km, 28.5° (Epoch: 14 October)

Event Time Altitude Azimuth Distance (km) Brightness Sun altitude
Rises 19:07:26 0° 321° (NW) 2,669 4.7 -20.1°
Reaches altitude 10° 19:10:04 10° 337° (NNW) 1,780 3.6 -20.8°
Enters shadow 19:11:59 19° 1° (N) 1,310 2.6 -21.3°
